Погода Казалы

Погода Казалы : погода сейчас, прогноз погоды и архив. Всё, что Вы хотите узнать о погоде Казалы!

Хотите узнать прогноз погоды Казалы? Тогда Вам сюда: Погода Казалы

Поиск расширенной информации на нашем сайте:

Другие новости

Новости СМИ2

Главная страница сайта

Новости сайта

02.10.2013

Напоминаем, что на нашем новом сайте вы можете получить высокодетализированные прогнозы погоды по пунктам России, СНГ и мира (включающие важные для авиации метеовеличины, такие как направление и скорость ветра, видимость, явления погоды, количество и форма облачности, нижняя и верхняя граница облачности), а также ознакомиться с разнообразными материалами по авиационной метеорологии и подборкой полезных ссылок на эту тему.

Сайт Метеоцентр.Азия посвящён разработке технологий оптимизации авиаметеорологического обслуживания, включая проектирование и перспективное создание нескольких автоматизированных авиаметеорологических систем:
- система выпуска высокодетальных прогностических карт явлений погоды для нижнего воздушного пространства по России и ближнему зарубежью;
- система верификации прогнозов TAF (выпускаемых синоптиками официальных АМСГ РФ и ближнего зарубежья) и AUTOTAF (выпускаемых сайтом Метеоцентр.Азия) - выявление ошибок, онлайн-сопоставление с фактической погодой METAR, автоматическое внесение коррективов в прогнозы при резком отклонении фактической погоды от прогноза, подсчёт оправдываемости прогнозов по элементам и в целом;
- система обработки, анализа и отображения авиаметеорологической информации для применения провайдерами метеорологической информации.


Погода Казалы - сегодня

Время (UTC), дата Ветер
(°,м/с) 
Видим.   Явления Облачность Т
(°С)
Тd
(°С)
f(%) Тe
(°С)
Pmin
(гПа)
dP
(гПа)
Po
(мм)
O2
(г/м3)
Тmin Tmax R s Состояние
почвы
09 23.04.17 250 (З) 20000 м    3/0 верхняя 
[Ci fib]
+17.5 -0.5 29 +18  1022.2  0.3  761  288           
12 23.04.17 250 (З) 20000 м    3/0 верхняя 
[Ci sp]
+18.9 -0.7 27 +20  1021.3  -0.9  760  286           
15 23.04.17 тихо ()   20000 м    5/0 верхняя 
[Ci sp]
+16.2 +2.5 40 +16  1021.5  760  289    +18.9       
18 23.04.17 320 (СЗ) 20000 м    ясно 
+10.8 +3.8 62 +12  1021.5  -0.1  760  294    +18.9       
21 23.04.17 020 (С) 20000 м    ясно 
+10 +3.4 63 +11  1020.5  -1  759  295           
00 24.04.17 090 (В) 20000 м    ясно 
+9.7 +3 63 +11  1019.5  -1  758  295           
03 24.04.17 090 (В) 20000 м    ясно 
+13.1 +2.7 49 +14  1018.7  -0.7  758  291           
06 24.04.17 110 (В) 20000 м    ясно 
+21.1 +1.7 28 +21  1016.4  -2.1  756  283  +9.2         
09 24.04.17 140 (ЮВ) 20000 м    ясно 
+27.3 +2.1 20 +27  1013.9  -2.3  755  276           
12 24.04.17 140 (ЮВ) 20000 м    3/0 верхняя 
[Ci sp]
+29.7 +0.4 15 +30  1011.7  -2.1  753  274           
15 24.04.17 140 (ЮВ) 20000 м    8/0 верхняя 
[Ci sp]
+25.2 +5.1 27 +25  1011.6  -0.2  753  277    +29.7       
18 24.04.17 140 (ЮВ) 20000 м    5/0 верхняя 
[Ci sp]
+20.5 +7.6 43 +21  1011.8  0.1  753  281    +29.7       
21 24.04.17 140 (ЮВ) 20000 м    ясно 
+18 +7.1 49 +19  1011.1  -0.7  752  283           
00 25.04.17 140 (ЮВ) 20000 м    8/0 верхняя 
[Ci sp]
+17.9 +7 49 +19  1010.6  -0.5  752  283           
03 25.04.17 160 (Ю) 20000 м    8/0 верхняя 
[Cs]
+20.5 +6.4 40 +21  1011.2  0.6  752  281           
06 25.04.17 020 (С) 20000 м    8/0 верхняя 
[Ci sp]
+25 +5.1 28 +25  1011.4  0.3  753  277  +17.8         
09 25.04.17 270 (З) 20000 м    10/0 средняя 
[Ac As]
+27 +4.3 23 +27  1012  0.7  753  276           
12 25.04.17 290 (З) 20000 м    8/0 средняя, верхняя 
[Ac trans|Cs]
+23.8 +6.2 32 +24  1013.2  754  278           
15 25.04.17 320 (СЗ) 20000 м    9/0 средняя, верхняя 
[Ac As|Ci sp]
+20.5 +10.6 53 +22  1014.6  1.3  755  281    +27.6       
18 25.04.17 290 (З) 20000 м    10/10 600 м кучево-дожд. 
[Cb calv]
+17.8 +11.8 68 +22  1016  1.4  756  284    +27.6       
21 25.04.17 320 (СЗ) 20000 м    ясно 
+16 +10.7 71 +19  1016.6  0.4  756  286           
00 26.04.17 320 (СЗ) 20000 м    3/0 верхняя 
[Ci fib]
+12.6 +7.3 70 +14  1017.9  1.3  757  290           
03 26.04.17 320 (СЗ) 20000 м    6/0 средняя 
[Ac trans]
+14 +3.4 49 +15  1019.9  759  290           
06 26.04.17 340 (С) 20000 м    8/0 средняя 
[Ac trans]
+16.7 +4.1 43 +17  1021.9  2.2  760  288  +11.9         
09 26.04.17 340 (С) 20000 м    10/0 средняя 
[Ac As]
+17.2 +1.9 36 +18  1023.4  1.4  761  288           
Время (UTC), дата Ветер
(°,м/с) 
Видим.   Явления Облачность Т
(°С)
Тd
(°С)
f(%) Тe
(°С)
Pmin
(гПа)
dP
(гПа)
Po
(мм)
O2
(г/м3)
Тmin Tmax R s Состояние
почвы

Для получения пояснительной информации подведите курсор к названию столбца.

ПОГОДА Казалы - архив

Всё, что Вы хотите узнать о погоде Казалы - удобно и подробно!

Выберите нужную дату (начиная с 1 января 2015* года) и нажмите кнопку "Найти".
Будут отображены архивные сводки погоды по пункту Казалы, начиная с указанной даты.


Отображать данные в формате CSV (для использования в таблицах Excel)


Внимание! Наш архив погоды предназначен исключительно для личного некоммерческого использования в познавательных целях. Если Вам необходимы официальные справки о состоянии погоды (для производственных, юридических, коммерческих и т.п. целей), обращайтесь в органы Росгидромета.

*Примечание: данная дата относится к архиву по метеостанциям СССР (Россия, СНГ, Балтия).
Архив по метеостанциям Зарубежной Европы и Азии (кроме Китая) хранится 10 дней, по другим регионам земного шара (Китай, Африка, Америка, Австралия, Океания) - 1 день.

Казалы - район местоположения метеостанции


Название, широта, долгота, высота метеостанции:
Казалы (Казалинск) 45.8°ш. 62.1°д. 68 м над ур. моря [Казахстан]

Дополнительная информация

В oтличие oт бoльшинства пoгoдных сайтoв мы публикуем пoдрoбную метеoинфoрмацию в детальнoм прoфессиoнальнoм фoрмате.

Характеристики температуры и влажнoсти вoздуха измеряются на высoте 2 м в тени вдали oт зданий и деревьев.
Скoрoсть ветра измеряется на высoте 10 м (на урoвне рoста челoвека скoрoсть ветра ниже в 1.5-2 раза). Если метеoстанция нахoдится в гoрoде или в лесу, тo скoрoсть ветра занижена на 2-4 м/с пo сравнению с oткрытым местoм. Скoрoсть ветра над акватoриями крупных рек и oзёр, а также на вершинах хoлмoв на 2-5 м/с выше, чем в oбычных услoвиях.
Атмoсфернoе давление в разных тoчках местнoсти мoжет значительнo oтличаться oт давления на метеoстанции, в зависимoсти oт услoвий рельефа (при пoдъёме на 10 м давление пoнижается примернo на 1 мм рт.ст.).